When you browse on this site, cookies collect data to enhance your experience and personalize the content and advertising you see.
Visit our Privacy Policy to learn more. By continuing to use the site, you agree to this use of cookies and data.
  • In Österreich
  • Länderverzeichnis
  • Für 7 Tage
  • Wassertemperatur
  • Satellitenkarten
  • Wetterkarte
  • News
  • Widgets
  • user-avatar
    Anmelden

    Stündliche Wetter Troy

    Heute, 24 Juli, Mittwoch

    Zeit Temperatur Niederschläge Wind Luftdruck Luftfeuchtigkeit
    00:00 +17°C° 0 mm 3 m/S 742 mmHg 74%
    01:00 +17°C° 0 mm 3 m/S 742 mmHg 76%
    02:00 +17°C° 0 mm 3 m/S 742 mmHg 77%
    03:00 +16°C° 0 mm 2 m/S 742 mmHg 79%
    04:00 +16°C° 0 mm 3 m/S 743 mmHg 77%
    05:00 +17°C° 0 mm 3 m/S 743 mmHg 75%
    06:00 +17°C° 0 mm 3 m/S 743 mmHg 73%
    07:00 +18°C° 0 mm 3 m/S 744 mmHg 67%
    08:00 +20°C° 0 mm 3 m/S 744 mmHg 61%
    09:00 +22°C° 0 mm 3 m/S 744 mmHg 55%
    10:00 +24°C° 0 mm 3 m/S 745 mmHg 52%
    11:00 +25°C° 0 mm 3 m/S 745 mmHg 49%
    12:00 +26°C° 0 mm 4 m/S 745 mmHg 46%
    13:00 +26°C° 0 mm 3 m/S 744 mmHg 46%
    14:00 +26°C° 0 mm 3 m/S 744 mmHg 46%
    15:00 +27°C° 0 mm 3 m/S 744 mmHg 46%
    16:00 +26°C° 0 mm 3 m/S 744 mmHg 49%
    17:00 +25°C° 0 mm 2 m/S 744 mmHg 53%
    18:00 +24°C° 0 mm 2 m/S 744 mmHg 57%
    19:00 +24°C° 0 mm 2 m/S 744 mmHg 58%
    20:00 +23°C° 0 mm 1 m/S 744 mmHg 58%
    21:00 +22°C° 0 mm 1 m/S 744 mmHg 58%
    22:00 +22°C° 0 mm 1 m/S 744 mmHg 59%
    23:00 +21°C° 0 mm 1 m/S 744 mmHg 60%

    Morgen, 25 Juli, Donnerstag

    Zeit Temperatur Niederschläge Wind Luftdruck Luftfeuchtigkeit
    00:00 +20°C° 0 mm 2 m/S 745 mmHg 61%
    01:00 +20°C° 0 mm 2 m/S 745 mmHg 63%
    02:00 +19°C° 0 mm 2 m/S 745 mmHg 64%
    03:00 +19°C° 0 mm 2 m/S 745 mmHg 66%
    04:00 +19°C° 0 mm 2 m/S 745 mmHg 65%
    05:00 +19°C° 0 mm 2 m/S 746 mmHg 63%
    06:00 +20°C° 0 mm 2 m/S 746 mmHg 62%
    07:00 +23°C° 0 mm 2 m/S 746 mmHg 57%
    08:00 +24°C° 0 mm 2 m/S 746 mmHg 52%
    09:00 +26°C° 0 mm 2 m/S 747 mmHg 47%
    10:00 +28°C° 0 mm 2 m/S 747 mmHg 45%
    11:00 +29°C° 0 mm 2 m/S 746 mmHg 43%
    12:00 +30°C° 0 mm 3 m/S 746 mmHg 41%
    13:00 +30°C° 0 mm 3 m/S 746 mmHg 43%
    14:00 +30°C° 0 mm 3 m/S 746 mmHg 44%
    15:00 +30°C° 0 mm 3 m/S 746 mmHg 46%
    16:00 +29°C° 0 mm 3 m/S 746 mmHg 51%
    17:00 +28°C° 0 mm 2 m/S 746 mmHg 55%
    18:00 +27°C° 0 mm 2 m/S 746 mmHg 60%
    19:00 +26°C° 0 mm 2 m/S 746 mmHg 62%
    20:00 +25°C° 0 mm 1 m/S 746 mmHg 64%
    21:00 +24°C° 0 mm 1 m/S 746 mmHg 67%
    22:00 +24°C° 0 mm 1 m/S 747 mmHg 69%
    23:00 +23°C° 0 mm 1 m/S 747 mmHg 71%

    übermorgen, 26 Juli, Freitag

    Zeit Temperatur Niederschläge Wind Luftdruck Luftfeuchtigkeit
    00:00 +23°C° 0 mm 1 m/S 747 mmHg 73%
    01:00 +23°C° 0 mm 1 m/S 747 mmHg 75%
    02:00 +22°C° 0 mm 1 m/S 747 mmHg 76%
    03:00 +22°C° 0 mm 1 m/S 746 mmHg 77%
    04:00 +22°C° 0 mm 1 m/S 747 mmHg 75%
    05:00 +23°C° 0 mm 1 m/S 747 mmHg 73%
    06:00 +23°C° 0 mm 1 m/S 748 mmHg 72%
    07:00 +25°C° 0 mm 1 m/S 748 mmHg 66%
    08:00 +26°C° 0 mm 2 m/S 748 mmHg 61%
    09:00 +28°C° 0 mm 2 m/S 748 mmHg 55%
    10:00 +28°C° 0 mm 3 m/S 748 mmHg 53%
    11:00 +29°C° 0 mm 4 m/S 748 mmHg 50%
    12:00 +30°C° 0 mm 4 m/S 748 mmHg 48%
    13:00 +30°C° 0 mm 4 m/S 748 mmHg 48%
    14:00 +30°C° 0 mm 4 m/S 747 mmHg 49%
    15:00 +30°C° 0 mm 5 m/S 747 mmHg 50%
    16:00 +29°C° 0 mm 4 m/S 747 mmHg 54%
    17:00 +28°C° 0 mm 4 m/S 747 mmHg 58%
    18:00 +27°C° 0 mm 3 m/S 746 mmHg 62%
    19:00 +27°C° 0 mm 3 m/S 747 mmHg 65%
    20:00 +26°C° 0 mm 3 m/S 747 mmHg 67%
    21:00 +25°C° 0 mm 3 m/S 747 mmHg 70%
    22:00 +25°C° 0 mm 3 m/S 747 mmHg 72%
    23:00 +24°C° 0 mm 3 m/S 747 mmHg 74%

    27 Juli, Samstag

    Zeit Temperatur Niederschläge Wind Luftdruck Luftfeuchtigkeit
    00:00 +24°C° 0 mm 3 m/S 746 mmHg 76%
    01:00 +22°C° 0 mm 3 m/S 746 mmHg 77%
    02:00 +22°C° 0 mm 3 m/S 746 mmHg 79%
    03:00 +22°C° 0 mm 3 m/S 746 mmHg 80%
    04:00 +22°C° 0 mm 3 m/S 746 mmHg 79%
    05:00 +22°C° 0 mm 3 m/S 747 mmHg 78%
    06:00 +22°C° 0 mm 3 m/S 747 mmHg 77%
    07:00 +25°C° 0 mm 3 m/S 747 mmHg 71%
    08:00 +26°C° 0 mm 4 m/S 747 mmHg 65%
    09:00 +28°C° 0 mm 4 m/S 747 mmHg 59%
    10:00 +29°C° 0 mm 5 m/S 747 mmHg 56%
    11:00 +30°C° 0 mm 5 m/S 747 mmHg 52%
    12:00 +30°C° 0 mm 5 m/S 746 mmHg 49%
    13:00 +32°C° 0 mm 5 m/S 746 mmHg 49%
    14:00 +32°C° 0 mm 5 m/S 746 mmHg 49%
    15:00 +32°C° 0 mm 4 m/S 746 mmHg 49%
    16:00 +30°C° 0 mm 4 m/S 745 mmHg 54%
    17:00 +29°C° 0 mm 4 m/S 745 mmHg 58%
    18:00 +28°C° 0 mm 4 m/S 745 mmHg 63%
    19:00 +27°C° 0 mm 4 m/S 745 mmHg 66%
    20:00 +26°C° 0 mm 4 m/S 745 mmHg 69%
    21:00 +26°C° 0 mm 4 m/S 745 mmHg 72%
    22:00 +25°C° 0 mm 4 m/S 745 mmHg 73%
    23:00 +25°C° 0 mm 4 m/S 745 mmHg 75%

    28 Juli, Sonntag

    Zeit Temperatur Niederschläge Wind Luftdruck Luftfeuchtigkeit
    00:00 +24°C° 0 mm 3 m/S 745 mmHg 76%
    01:00 +24°C° 0 mm 3 m/S 745 mmHg 78%
    02:00 +24°C° 0 mm 3 m/S 745 mmHg 80%
    03:00 +22°C° 0 mm 3 m/S 745 mmHg 82%
    04:00 +22°C° 0 mm 3 m/S 745 mmHg 82%
    05:00 +23°C° 0 mm 4 m/S 745 mmHg 81%
    06:00 +23°C° 0 mm 4 m/S 745 mmHg 81%
    07:00 +25°C° 0 mm 4 m/S 745 mmHg 75%
    08:00 +27°C° 0 mm 4 m/S 745 mmHg 69%
    09:00 +28°C° 0 mm 5 m/S 745 mmHg 63%
    10:00 +29°C° 0 mm 5 m/S 744 mmHg 59%
    11:00 +32°C° 0 mm 5 m/S 744 mmHg 56%
    12:00 +33°C° 0 mm 5 m/S 744 mmHg 52%
    13:00 +33°C° 0.1 mm 6 m/S 744 mmHg 53%
    14:00 +33°C° 0.1 mm 6 m/S 743 mmHg 54%
    15:00 +33°C° 0.1 mm 6 m/S 743 mmHg 54%
    16:00 +32°C° 0 mm 6 m/S 743 mmHg 58%
    17:00 +30°C° 0 mm 5 m/S 742 mmHg 62%
    18:00 +29°C° 0 mm 5 m/S 742 mmHg 66%
    19:00 +28°C° 0 mm 5 m/S 742 mmHg 69%
    20:00 +28°C° 0 mm 5 m/S 742 mmHg 71%
    21:00 +27°C° 0 mm 5 m/S 742 mmHg 74%
    22:00 +26°C° 0.1 mm 4 m/S 742 mmHg 76%
    23:00 +26°C° 0.1 mm 4 m/S 742 mmHg 77%

    29 Juli, Montag

    Zeit Temperatur Niederschläge Wind Luftdruck Luftfeuchtigkeit
    00:00 +25°C° 0.1 mm 4 m/S 742 mmHg 79%
    01:00 +25°C° 0.7 mm 4 m/S 742 mmHg 81%
    02:00 +23°C° 0.7 mm 4 m/S 742 mmHg 83%
    03:00 +24°C° 0.7 mm 3 m/S 742 mmHg 84%
    04:00 +23°C° 0.3 mm 4 m/S 742 mmHg 83%
    05:00 +23°C° 0.3 mm 4 m/S 742 mmHg 82%
    06:00 +23°C° 0.3 mm 4 m/S 742 mmHg 81%
    07:00 +25°C° 0.7 mm 4 m/S 742 mmHg 77%
    08:00 +27°C° 0.7 mm 4 m/S 742 mmHg 72%
    09:00 +28°C° 0.7 mm 3 m/S 742 mmHg 67%
    10:00 +28°C° 0.2 mm 3 m/S 742 mmHg 65%
    11:00 +28°C° 0.2 mm 3 m/S 741 mmHg 63%
    12:00 +29°C° 0.2 mm 3 m/S 741 mmHg 60%
    13:00 +29°C° 0.1 mm 4 m/S 741 mmHg 62%
    14:00 +28°C° 0.1 mm 4 m/S 740 mmHg 63%
    15:00 +28°C° 0.1 mm 4 m/S 740 mmHg 64%
    16:00 +28°C° 0.1 mm 4 m/S 740 mmHg 65%
    17:00 +27°C° 0.1 mm 4 m/S 740 mmHg 67%
    18:00 +27°C° 0.1 mm 4 m/S 740 mmHg 68%
    19:00 +27°C° 0.3 mm 4 m/S 740 mmHg 68%
    20:00 +26°C° 0.3 mm 4 m/S 740 mmHg 69%
    21:00 +26°C° 0.3 mm 4 m/S 741 mmHg 69%
    22:00 +25°C° 0.1 mm 3 m/S 740 mmHg 70%
    23:00 +25°C° 0.1 mm 3 m/S 740 mmHg 71%
    Mehr zeigen